Location: Martz Observatory
(42.0083°N, 79.0667°W)
Time: 17:59:21
(UTC-04:00)

Meteor 1-23 Rocket - Visible Passes

Search period start: 21 August 2014 00:00
Search period end: 31 August 2014 00:00
Orbit: 839 x 888 km, 81.3° (Epoch: 21 August)

Date Brightness Start Highest point End Pass type
(mag) Time Alt. Az. Time Alt. Az. Time Alt. Az.
21 Aug 6.9 21:33:29 10° NW 21:37:25 19° W 21:41:22 10° SW visible
22 Aug 6.9 21:25:14 10° NW 21:29:12 19° W 21:33:11 10° SW visible
23 Aug 7.0 21:16:59 10° NW 21:20:59 20° W 21:24:59 10° SW visible
24 Aug 7.0 21:08:44 10° NW 21:12:46 20° W 21:16:47 10° SW visible
25 Aug 7.0 21:00:29 10° NW 21:04:32 20° W 21:08:36 10° SW visible
26 Aug 7.0 20:52:14 10° NW 20:56:19 20° W 21:00:24 10° SW visible
27 Aug 7.0 20:43:59 10° NW 20:48:06 20° W 20:52:12 10° SW visible
28 Aug 7.1 20:35:44 10° NW 20:39:52 21° W 20:44:00 10° SW visible
29 Aug 7.1 20:27:29 10° NW 20:31:39 21° W 20:35:48 10° SW visible
30 Aug 7.1 20:19:14 10° NW 20:23:25 21° W 20:27:36 10° SW visible
